This demonstration page uses our WeatherBlox Daily Observations layout. Learn more.

Left ArrowRight Arrow

Hourly Observations for May 16, 2015

Temp ( °F °C ) Dew Point ( °F °C ) Humidity (%) Winds ( mph kmh ) Pressure ( in mb ) Visibility ( mi km ) Precip ( " mm )
12:51 am 00:51 Cloudy 57 13.9 42 5.6 58 58 Calm 29.69 1006 10 16 0.00 0.00
1:51 am 01:51 Cloudy 56 13.3 42 5.6 60 60 S 3 6 29.67 1005 10 16 0.00 0.00
2:51 am 02:51 Cloudy 54 12.2 48 8.9 80 80 NW 8 13 29.71 1006 10 16 0.01 0.25
3:51 am 03:51 Cloudy with Light Rain 48 8.9 46 7.8 93 93 NNW 18 30 29.77 1008 8 13 0.05 1.27
4:51 am 04:51 Cloudy 50 10 43 6.1 77 77 NW 12 19 29.78 1008 10 16 0.01 0.25
5:51 am 05:51 Cloudy 52 11.1 43 6.1 72 72 W 3 6 29.80 1009 10 16 0.00 0.00
6:51 am 06:51 Mostly Cloudy 52 11.1 44 6.7 75 75 WSW 6 9 29.82 1010 10 16 0.00 0.00
7:51 am 07:51 Cloudy 56 13.3 44 6.7 65 65 NW 8 13 29.85 1011 10 16 0.00 0.00
8:51 am 08:51 Mostly Cloudy 59 15 43 6.1 56 56 NW 15 24 29.86 1011 10 16 0.00 0.00
9:51 am 09:51 Cloudy 55 12.8 45 7.2 69 69 W 10 17 29.90 1012 10 16 0.00 0.03
10:51 am 10:51 Cloudy 55 12.8 48 8.9 77 77 SW 8 13 29.92 1013 10 16 0.00 0.03
11:51 am 11:51 Cloudy 61 16.1 44 6.7 54 54 WNW 14 22 29.91 1013 10 16 0.00 0.03
12:51 pm 12:51 Mostly Cloudy 66 18.9 41 5 40 40 WNW 14 22 29.88 1012 10 16 0.00 0.00
1:51 pm 13:51 Partly Cloudy 68 20 39 3.9 35 35 NW 21 33 29.88 1012 10 16 0.00 0.00
2:51 pm 14:51 Sunny 70 21.1 38 3.3 31 31 WNW 21 33 29.87 1011 10 16 0.00 0.00
3:51 pm 15:51 Sunny 71 21.7 35 1.7 27 27 NW 22 35 29.86 1011 10 16 0.00 0.00
4:51 pm 16:51 Sunny 70 21.1 36 2.2 29 29 NW 23 37 29.86 1011 10 16 0.00 0.00
5:51 pm 17:51 Sunny 68 20 35 1.7 30 30 NW 14 22 29.87 1012 10 16 0.00 0.00
6:51 pm 18:51 Sunny 66 18.9 36 2.2 33 33 NW 17 28 29.89 1012 10 16 0.00 0.00
7:51 pm 19:51 Clear 63 17.2 36 2.2 37 37 NNW 13 20 29.90 1013 10 16 0.00 0.00
8:51 pm 20:51 Clear 59 15 37 2.8 44 44 NW 7 11 29.93 1014 10 16 0.00 0.00
9:51 pm 21:51 Clear 57 13.9 35 1.7 44 44 NW 9 15 29.96 1014 10 16 0.00 0.00
10:51 pm 22:51 Clear 53 11.7 37 2.8 55 55 Calm 29.97 1015 10 16 0.00 0.00
11:51 pm 23:51 Clear 52 11.1 37 2.8 57 57 N 6 9 29.96 1015 10 16 0.00 0.00

Powered by AerisWeather